| time (UTC) | temp F | wind direction | speed MPH | gust MPH | rain 1hr in | rain 24hr in | rain mn in | humidity % | barometer mb |
| 20260905031514 | 60 | 299 | 2.0 | 5.0 | 0.00 | 0.00 | 0.00 | 86 | 1021.8 |
| 20260905030013 | 61 | 301 | 3.0 | 7.0 | 0.00 | 0.00 | 0.00 | 86 | 1021.4 |
| 20260905024512 | 61 | 308 | 7.0 | 11.0 | 0.00 | 0.00 | 0.00 | 86 | 1021.4 |
| 20260905023012 | 62 | 306 | 5.0 | 10.0 | 0.00 | 0.00 | 0.00 | 87 | 1021.3 |
| 20260905021522 | 62 | 304 | 6.0 | 10.0 | 0.00 | 0.00 | 0.00 | 87 | 1021.0 |
| 20260905020013 | 62 | 301 | 7.0 | 12.0 | 0.00 | 0.00 | 0.00 | 87 | 1020.9 |
| 20260905014506 | 63 | 296 | 4.0 | 10.0 | 0.00 | 0.00 | 0.00 | 87 | 1020.9 |
| 20260905013006 | 63 | 297 | 3.0 | 9.0 | 0.00 | 0.00 | 0.00 | 88 | 1020.6 |
| 20260905011506 | 63 | 302 | 6.0 | 11.0 | 0.00 | 0.00 | 0.00 | 88 | 1020.6 |
| 20260905010005 | 64 | 313 | 4.0 | 10.0 | 0.00 | 0.00 | 0.00 | 89 | 1020.6 |
| 20260905004502 | 64 | 310 | 4.0 | 6.0 | 0.00 | 0.00 | 0.00 | 89 | 1020.5 |
| 20260905003102 | 64 | 317 | 3.0 | 8.0 | 0.00 | 0.00 | 0.00 | 88 | 1020.5 |
| 20260905001607 | 65 | 298 | 4.0 | 8.0 | 0.00 | 0.00 | 0.00 | 88 | 1020.2 |
| 20260904234553 | 65 | 317 | 4.0 | 9.0 | 0.00 | 0.00 | 0.00 | 88 | 1020.0 |
| 20260904233019 | 65 | 267 | 3.0 | 9.0 | 0.00 | 0.00 | 0.00 | 88 | 1020.0 |
| 20260904231516 | 65 | 307 | 2.0 | 5.0 | 0.00 | 0.00 | 0.00 | 88 | 1020.2 |
| 20260904230014 | 65 | 314 | 3.0 | 5.0 | 0.00 | 0.00 | 0.00 | 88 | 1020.1 |
| 20260904224514 | 66 | 311 | 2.0 | 6.0 | 0.00 | 0.00 | 0.00 | 87 | 1020.0 |
| 20260904223010 | 66 | 298 | 7.0 | 10.0 | 0.00 | 0.00 | 0.00 | 86 | 1020.1 |
| 20260904221524 | 66 | 327 | 5.0 | 9.0 | 0.00 | 0.00 | 0.00 | 85 | 1020.0 |
| 20260904220020 | 67 | 317 | 7.0 | 12.0 | 0.00 | 0.00 | 0.00 | 83 | 1020.0 |
| 20260904214544 | 68 | 301 | 7.0 | 12.0 | 0.00 | 0.00 | 0.00 | 81 | 1020.0 |
| 20260904213018 | 68 | 308 | 6.0 | 11.0 | 0.00 | 0.00 | 0.00 | 80 | 1019.9 |
| 20260904211551 | 69 | 297 | 6.0 | 10.0 | 0.00 | 0.00 | 0.00 | 79 | 1019.8 |
| 20260904210016 | 69 | 278 | 5.0 | 12.0 | 0.00 | 0.00 | 0.00 | 78 | 1019.7 |
| 20260904204514 | 69 | 300 | 7.0 | 11.0 | 0.00 | 0.00 | 0.00 | 78 | 1019.6 |
| 20260904203012 | 69 | 281 | 5.0 | 14.0 | 0.00 | 0.00 | 0.00 | 78 | 1019.5 |
| 20260904201512 | 69 | 304 | 8.0 | 15.0 | 0.00 | 0.00 | 0.00 | 79 | 1019.4 |
| 20260904200007 | 69 | 294 | 7.0 | 13.0 | 0.00 | 0.00 | 0.00 | 79 | 1019.2 |
| 20260904194505 | 70 | 307 | 7.0 | 12.0 | 0.00 | 0.00 | 0.00 | 80 | 1018.9 |
| 20260904193032 | 72 | 291 | 6.0 | 21.0 | 0.00 | 0.00 | 0.00 | 76 | 1018.9 |
| 20260904191517 | 72 | 286 | 4.0 | 12.0 | 0.00 | 0.00 | 0.00 | 71 | 1018.5 |
| 20260904190053 | 73 | 295 | 2.0 | 7.0 | 0.00 | 0.00 | 0.00 | 70 | 1018.1 |
| 20260904184518 | 73 | 291 | 2.0 | 5.0 | 0.00 | 0.00 | 0.00 | 69 | 1017.8 |
| 20260904183013 | 74 | 287 | 3.0 | 8.0 | 0.00 | 0.00 | 0.00 | 68 | 1017.6 |
| 20260904181511 | 75 | 285 | 2.0 | 5.0 | 0.00 | 0.00 | 0.00 | 67 | 1017.6 |
| 20260904180008 | 75 | 259 | 1.0 | 9.0 | 0.00 | 0.00 | 0.00 | 66 | 1017.5 |
| 20260904174510 | 76 | 276 | 4.0 | 10.0 | 0.00 | 0.00 | 0.00 | 65 | 1017.5 |
| 20260904173006 | 76 | 287 | 6.0 | 12.0 | 0.00 | 0.00 | 0.00 | 64 | 1017.6 |
| 20260904171505 | 76 | 313 | 7.0 | 15.0 | 0.00 | 0.00 | 0.00 | 64 | 1017.4 |
| 20260904170005 | 77 | 250 | 5.0 | 12.0 | 0.00 | 0.00 | 0.00 | 65 | 1017.4 |
| 20260904164508 | 77 | 245 | 3.0 | 13.0 | 0.00 | 0.00 | 0.00 | 65 | 1017.3 |
| 20260904163002 | 78 | 241 | 5.0 | 14.0 | 0.00 | 0.00 | 0.00 | 64 | 1017.2 |
| 20260904161602 | 78 | 263 | 4.0 | 12.0 | 0.00 | 0.00 | 0.00 | 65 | 1017.2 |
| 20260904160103 | 78 | 263 | 5.0 | 15.0 | 0.00 | 0.00 | 0.00 | 65 | 1017.2 |
| 20260904154608 | 78 | 270 | 7.0 | 15.0 | 0.00 | 0.00 | 0.00 | 63 | 1017.2 |
| 20260904153055 | 78 | 207 | 8.0 | 16.0 | 0.00 | 0.00 | 0.00 | 62 | 1017.2 |
| 20260904151531 | 79 | 246 | 7.0 | 14.0 | 0.00 | 0.00 | 0.00 | 62 | 1017.0 |
| 20260904150016 | 79 | 255 | 11.0 | 19.0 | 0.00 | 0.00 | 0.00 | 62 | 1017.2 |
| 20260904144512 | 79 | 233 | 7.0 | 14.0 | 0.00 | 0.00 | 0.00 | 63 | 1017.1 |
| 20260904143013 | 79 | 232 | 9.0 | 20.0 | 0.00 | 0.00 | 0.00 | 62 | 1017.2 |
| 20260904141509 | 79 | 170 | 6.0 | 16.0 | 0.00 | 0.00 | 0.00 | 63 | 1017.2 |
| 20260904140022 | 78 | 271 | 9.0 | 17.0 | 0.00 | 0.00 | 0.00 | 63 | 1017.3 |
| 20260904134557 | 78 | 259 | 8.0 | 21.0 | 0.00 | 0.00 | 0.00 | 65 | 1017.3 |
| 20260904133107 | 78 | 244 | 8.0 | 18.0 | 0.00 | 0.00 | 0.00 | 64 | 1017.1 |
| 20260904131522 | 78 | 212 | 9.0 | 16.0 | 0.00 | 0.00 | 0.00 | 64 | 1017.3 |
| 20260904130019 | 78 | 236 | 6.0 | 19.0 | 0.00 | 0.00 | 0.00 | 65 | 1017.4 |
| 20260904124542 | 77 | 285 | 4.0 | 12.0 | 0.00 | 0.00 | 0.00 | 67 | 1017.4 |
| 20260904123015 | 76 | 221 | 11.0 | 20.0 | 0.00 | 0.00 | 0.00 | 68 | 1017.4 |
| 20260904121513 | 76 | 245 | 5.0 | 14.0 | 0.00 | 0.00 | 0.00 | 68 | 1017.5 |
| 20260904120112 | 75 | 200 | 6.0 | 16.0 | 0.00 | 0.00 | 0.00 | 68 | 1017.5 |
| 20260904114509 | 73 | 269 | 6.0 | 16.0 | 0.00 | 0.00 | 0.00 | 71 | 1017.6 |
| 20260904113028 | 73 | 248 | 7.0 | 18.0 | 0.00 | 0.00 | 0.00 | 73 | 1017.8 |
| 20260904111519 | 74 | 245 | 6.0 | 12.0 | 0.00 | 0.00 | 0.00 | 74 | 1017.5 |
| 20260904110005 | 72 | 222 | 7.0 | 17.0 | 0.00 | 0.00 | 0.00 | 75 | 1017.6 |
| 20260904104506 | 73 | 272 | 6.0 | 18.0 | 0.00 | 0.00 | 0.00 | 76 | 1017.5 |
| 20260904103005 | 73 | 236 | 12.0 | 17.0 | 0.00 | 0.00 | 0.00 | 76 | 1017.6 |
| 20260904101504 | 73 | 225 | 7.0 | 14.0 | 0.00 | 0.00 | 0.00 | 75 | 1017.6 |
| 20260904100004 | 75 | 231 | 7.0 | 11.0 | 0.00 | 0.00 | 0.00 | 74 | 1017.5 |
| 20260904094604 | 75 | 229 | 5.0 | 11.0 | 0.00 | 0.00 | 0.00 | 74 | 1017.5 |
| 20260904093100 | 75 | 225 | 4.0 | 10.0 | 0.00 | 0.00 | 0.00 | 74 | 1017.6 |
| 20260904091557 | 74 | 211 | 4.0 | 10.0 | 0.00 | 0.00 | 0.00 | 76 | 1017.6 |
| 20260904090055 | 73 | 210 | 6.0 | 11.0 | 0.00 | 0.00 | 0.00 | 77 | 1017.6 |
| 20260904084525 | 72 | 223 | 2.0 | 9.0 | 0.00 | 0.00 | 0.00 | 80 | 1017.5 |
| 20260904083049 | 70 | 242 | 4.0 | 9.0 | 0.00 | 0.00 | 0.00 | 83 | 1017.6 |
| 20260904081517 | 69 | 207 | 3.0 | 9.0 | 0.00 | 0.00 | 0.00 | 85 | 1017.6 |
| 20260904080050 | 68 | 217 | 5.0 | 10.0 | 0.00 | 0.00 | 0.00 | 87 | 1017.5 |
| 20260904074524 | 67 | 221 | 5.0 | 11.0 | 0.00 | 0.00 | 0.00 | 89 | 1017.7 |
| 20260904073013 | 66 | 261 | 4.0 | 10.0 | 0.00 | 0.00 | 0.00 | 91 | 1017.9 |
| 20260904071509 | 65 | 204 | 5.0 | 10.0 | 0.00 | 0.00 | 0.00 | 92 | 1017.8 |
| 20260904070009 | 64 | 205 | 5.0 | 10.0 | 0.00 | 0.00 | 0.00 | 93 | 1017.8 |
| 20260904064507 | 64 | 261 | 3.0 | 7.0 | 0.00 | 0.00 | 0.00 | 93 | 1017.7 |
| 20260904063013 | 63 | 193 | 3.0 | 6.0 | 0.00 | 0.00 | 0.00 | 93 | 1017.8 |
| 20260904061516 | 63 | 225 | 3.0 | 8.0 | 0.00 | 0.00 | 0.00 | 94 | 1017.9 |
| 20260904060008 | 62 | 209 | 2.0 | 5.0 | 0.00 | 0.00 | 0.00 | 93 | 1017.8 |
| 20260904054509 | 62 | 206 | 0.0 | 5.0 | 0.00 | 0.00 | 0.00 | 93 | 1017.7 |
| 20260904053005 | 62 | 205 | 1.0 | 3.0 | 0.00 | 0.00 | 0.00 | 93 | 1017.8 |
| 20260904051513 | 62 | 205 | 1.0 | 3.0 | 0.00 | 0.00 | 0.00 | 93 | 1018.0 |
| 20260904050004 | 62 | 204 | 1.0 | 3.0 | 0.00 | 0.00 | 0.00 | 92 | 1018.4 |
| 20260904044505 | 62 | 205 | 0.0 | 4.0 | 0.00 | 0.00 | 0.00 | 92 | 1018.3 |
| 20260904043008 | 62 | 204 | 2.0 | 4.0 | 0.00 | 0.00 | 0.00 | 91 | 1018.2 |
| 20260904041503 | 62 | 204 | 2.0 | 4.0 | 0.00 | 0.00 | 0.00 | 91 | 1018.2 |
| 20260904040006 | 63 | 204 | 1.0 | 3.0 | 0.00 | 0.00 | 0.00 | 91 | 1018.1 |
| 20260904034505 | 63 | 204 | 1.0 | 5.0 | 0.00 | 0.00 | 0.00 | 90 | 1018.1 |
| 20260904033002 | 63 | 200 | 1.0 | 4.0 | 0.00 | 0.00 | 0.00 | 89 | 1017.9 |